EW5026 Weather Reports


Display with metric or nautical units.
time (UTC)temp
F
wind
direction
speed
MPH
gust
MPH
rain 1hr
in
rain 24hr
in
rain mn
in
humidity
%
barometer
mb
20260831210559 91 155 10.0 16.0 0.00 0.01 0.01 63 1010.9
20260831210114 91 160 9.0 18.0 0.00 0.01 0.01 63 1010.9
20260831205559 91 176 9.0 18.0 0.00 0.01 0.01 61 1010.8
20260831205059 92 164 10.0 17.0 0.00 0.01 0.01 59 1010.8
20260831204559 92 184 8.0 16.0 0.00 0.01 0.01 59 1010.9
20260831204058 91 169 9.0 16.0 0.00 0.01 0.01 61 1010.9
20260831203558 91 167 10.0 16.0 0.00 0.01 0.01 60 1010.8
20260831203104 91 173 10.0 18.0 0.00 0.01 0.01 60 1010.9
20260831202556 91 202 9.0 18.0 0.00 0.01 0.01 59 1011.0
20260831202056 91 155 10.0 18.0 0.00 0.01 0.01 59 1011.1
20260831201600 91 137 11.0 17.0 0.00 0.01 0.01 60 1011.1
20260831201055 91 157 10.0 18.0 0.00 0.01 0.01 60 1011.2
20260831200554 91 169 10.0 18.0 0.00 0.01 0.01 58 1011.1
20260831200054 92 167 7.0 17.0 0.00 0.01 0.01 61 1011.3
20260831195552 91 166 9.0 17.0 0.00 0.01 0.01 63 1011.3
20260831195052 91 173 7.0 16.0 0.00 0.01 0.01 62 1011.3
20260831194557 91 161 9.0 18.0 0.00 0.01 0.01 62 1011.4
20260831194056 91 141 9.0 18.0 0.00 0.01 0.01 61 1011.5
20260831193551 91 150 10.0 18.0 0.00 0.01 0.01 60 1011.5
20260831193049 91 167 10.0 18.0 0.00 0.01 0.01 61 1011.6
20260831192549 91 162 9.0 18.0 0.00 0.01 0.01 61 1011.5
20260831192048 90 192 9.0 18.0 0.00 0.01 0.01 63 1011.6
20260831191558 90 153 11.0 18.0 0.00 0.01 0.01 61 1011.7
20260831191047 90 153 11.0 18.0 0.00 0.01 0.01 61 1011.7
20260831190551 90 170 9.0 19.0 0.00 0.01 0.01 62 1011.7
20260831190048 90 182 10.0 19.0 0.00 0.01 0.01 60 1011.7
20260831185545 90 131 10.0 17.0 0.00 0.01 0.01 62 1011.7
20260831185043 90 182 10.0 17.0 0.00 0.01 0.01 60 1011.8
20260831184548 90 161 9.0 14.0 0.00 0.01 0.01 62 1011.8
20260831184042 90 150 9.0 15.0 0.00 0.01 0.01 62 1012.1
20260831183541 90 147 9.0 15.0 0.00 0.01 0.01 60 1012.2
20260831183041 90 172 9.0 15.0 0.00 0.01 0.01 59 1012.5
20260831182539 89 151 7.0 17.0 0.00 0.01 0.01 61 1012.5
20260831182041 89 183 10.0 17.0 0.00 0.01 0.01 59 1012.6
20260831181540 90 131 9.0 15.0 0.00 0.01 0.01 59 1012.6
20260831181038 90 146 7.0 12.0 0.00 0.01 0.01 62 1012.7
20260831180537 89 192 6.0 15.0 0.00 0.01 0.01 63 1012.8
20260831180035 89 194 5.0 15.0 0.00 0.01 0.01 63 1013.0
20260831175535 89 165 6.0 12.0 0.00 0.01 0.01 61 1013.1
20260831175034 88 183 7.0 13.0 0.00 0.01 0.01 61 1013.2
20260831174534 88 187 6.0 11.0 0.00 0.01 0.01 64 1013.2
20260831174036 88 169 6.0 12.0 0.00 0.01 0.01 65 1013.3
20260831173533 88 153 8.0 12.0 0.00 0.01 0.01 62 1013.4
20260831173032 88 187 6.0 10.0 0.00 0.01 0.01 66 1013.5
20260831172532 88 179 6.0 10.0 0.00 0.01 0.01 63 1013.6
20260831172031 87 150 5.0 12.0 0.00 0.01 0.01 66 1013.6
20260831171530 87 162 6.0 12.0 0.00 0.01 0.01 68 1013.7
20260831171029 86 167 5.0 9.0 0.00 0.01 0.01 65 1013.7
20260831170529 86 167 5.0 10.0 0.00 0.01 0.01 65 1013.8
20260831170028 86 138 5.0 12.0 0.00 0.01 0.01 65 1013.8
20260831165528 86 144 8.0 13.0 0.00 0.01 0.01 64 1013.9
20260831165028 86 159 7.0 13.0 0.00 0.01 0.01 66 1013.9
20260831164538 86 159 6.0 10.0 0.00 0.01 0.01 65 1013.8
20260831164028 86 143 6.0 12.0 0.00 0.01 0.01 66 1013.9
20260831163525 85 157 6.0 12.0 0.00 0.01 0.01 66 1014.0
20260831163023 84 165 4.0 10.0 0.00 0.01 0.01 70 1014.1
20260831162526 84 138 4.0 10.0 0.00 0.01 0.01 70 1014.0
20260831162023 84 147 6.0 11.0 0.00 0.01 0.01 68 1014.1
20260831161523 84 173 4.0 11.0 0.00 0.01 0.01 67 1014.1
20260831161023 84 174 5.0 9.0 0.00 0.01 0.01 68 1014.0
20260831160525 84 189 5.0 9.0 0.00 0.01 0.01 67 1014.0
20260831160020 84 156 4.0 9.0 0.00 0.01 0.01 68 1014.1
20260831155520 83 182 5.0 8.0 0.00 0.01 0.01 66 1014.1
20260831155020 83 189 4.0 8.0 0.00 0.01 0.01 68 1014.1
20260831154520 83 176 2.0 8.0 0.00 0.01 0.01 65 1014.1
20260831154019 83 172 3.0 9.0 0.00 0.01 0.01 68 1014.2
20260831153522 83 210 4.0 9.0 0.00 0.01 0.01 66 1014.2
20260831153019 83 174 4.0 7.0 0.00 0.01 0.01 66 1014.2
20260831152518 83 183 3.0 7.0 0.00 0.01 0.01 67 1014.2
20260831152017 83 182 4.0 8.0 0.00 0.01 0.01 69 1014.3
20260831151516 82 157 4.0 9.0 0.00 0.01 0.01 69 1014.2
20260831151014 82 159 3.0 9.0 0.00 0.01 0.01 72 1014.2
20260831150514 81 193 4.0 8.0 0.00 0.01 0.01 74 1014.1
20260831150012 81 188 4.0 8.0 0.00 0.01 0.01 72 1014.0
20260831145510 80 141 3.0 7.0 0.00 0.03 0.01 73 1014.1
20260831145011 79 150 2.0 7.0 0.00 0.03 0.01 78 1014.0
20260831144509 79 163 4.0 8.0 0.00 0.03 0.01 74 1014.0
20260831144008 79 154 4.0 8.0 0.00 0.03 0.01 76 1014.0
20260831143509 78 155 4.0 8.0 0.00 0.03 0.01 77 1014.1
20260831143005 78 190 1.0 6.0 0.00 0.03 0.01 78 1014.1
20260831142504 77 163 2.0 7.0 0.00 0.03 0.01 77 1014.1
20260831142004 77 157 3.0 8.0 0.00 0.03 0.01 76 1014.0
20260831141503 77 190 3.0 10.0 0.00 0.03 0.01 79 1014.0
20260831141001 77 172 3.0 10.0 0.00 0.03 0.01 79 1014.0
20260831140501 77 154 5.0 8.0 0.00 0.03 0.01 79 1013.8
20260831135558 76 145 3.0 7.0 0.00 0.03 0.01 79 1014.0
20260831135057 75 144 4.0 7.0 0.00 0.03 0.01 80 1013.9
20260831134556 75 145 3.0 7.0 0.00 0.03 0.01 81 1014.0
20260831134054 75 171 3.0 7.0 0.00 0.03 0.01 82 1013.9
20260831133555 74 137 3.0 7.0 0.00 0.03 0.01 82 1014.0
20260831133054 74 158 4.0 7.0 0.00 0.03 0.01 82 1013.9
20260831132554 74 165 4.0 7.0 0.00 0.03 0.01 81 1013.9
20260831132053 74 154 3.0 7.0 0.00 0.03 0.01 83 1013.8
20260831131552 73 144 3.0 6.0 0.00 0.03 0.01 85 1013.7
20260831131052 72 154 3.0 5.0 0.00 0.03 0.01 84 1013.7
20260831130555 72 156 3.0 7.0 0.00 0.03 0.01 85 1013.7
20260831130052 72 140 3.0 7.0 0.00 0.03 0.01 85 1013.7
20260831125551 71 155 3.0 5.0 0.00 0.03 0.01 86 1013.8
20260831125053 71 153 2.0 6.0 0.01 0.03 0.01 86 1013.7
20260831124600 71 144 2.0 6.0 0.01 0.03 0.01 86 1013.6
20260831124050 71 167 2.0 5.0 0.01 0.03 0.01 86 1013.6
20260831123550 71 161 2.0 4.0 0.01 0.03 0.01 86 1013.5
20260831123049 71 163 2.0 5.0 0.01 0.03 0.01 86 1013.5
20260831122550 70 154 2.0 5.0 0.01 0.03 0.01 86 1013.4
20260831122050 70 154 2.0 5.0 0.01 0.03 0.01 87 1013.3
20260831121551 70 159 3.0 5.0 0.01 0.03 0.01 88 1013.3
20260831121050 70 157 0.0 3.0 0.01 0.03 0.01 89 1013.3
20260831120548 70 160 1.0 4.0 0.01 0.03 0.01 88 1013.2
20260831120050 70 157 2.0 4.0 0.01 0.03 0.01 88 1013.3
20260831115548 70 167 1.0 3.0 0.01 0.03 0.01 87 1013.3
20260831115048 70 173 0.0 3.0 0.00 0.02 0.00 86 1013.3
20260831114553 70 178 0.0 3.0 0.00 0.02 0.00 86 1013.2
20260831114048 71 161 1.0 4.0 0.00 0.02 0.00 86 1013.1
20260831113548 71 159 0.0 5.0 0.00 0.02 0.00 85 1013.1
20260831113048 71 154 1.0 5.0 0.00 0.02 0.00 85 1013.1
20260831112550 71 158 2.0 6.0 0.00 0.02 0.00 84 1013.0
20260831112051 71 155 3.0 7.0 0.00 0.02 0.00 84 1013.1
20260831111547 71 159 4.0 7.0 0.00 0.02 0.00 85 1012.9
20260831111047 71 165 3.0 6.0 0.00 0.02 0.00 86 1012.9
20260831110547 70 147 3.0 5.0 0.00 0.02 0.00 86 1013.0
20260831110047 70 157 2.0 5.0 0.00 0.02 0.00 86 1013.1
20260831105547 70 159 2.0 5.0 0.00 0.02 0.00 86 1013.1
20260831105049 70 163 1.0 3.0 0.00 0.02 0.00 86 1013.1
20260831104601 71 163 0.0 4.0 0.00 0.02 0.00 86 1013.0
20260831104046 71 184 1.0 4.0 0.00 0.02 0.00 85 1013.0
20260831103548 71 157 1.0 4.0 0.00 0.02 0.00 85 1012.9
20260831103046 71 159 2.0 6.0 0.00 0.02 0.00 85 1012.9
20260831102546 71 156 2.0 6.0 0.00 0.02 0.00 85 1012.9
20260831102047 71 171 2.0 5.0 0.00 0.02 0.00 86 1012.8
20260831101548 71 169 0.0 2.0 0.00 0.02 0.00 86 1012.9
20260831101046 71 167 0.0 0.0 0.00 0.02 0.00 85 1012.9
20260831100547 71 167 0.0 1.0 0.00 0.02 0.00 84 1012.8
20260831100047 71 189 0.0 5.0 0.00 0.02 0.00 85 1012.9
20260831095545 71 176 0.0 6.0 0.00 0.02 0.00 85 1012.7
20260831095045 71 174 3.0 6.0 0.00 0.02 0.00 85 1012.7
20260831094558 71 156 1.0 4.0 0.00 0.02 0.00 86 1012.7
20260831094044 71 157 1.0 4.0 0.00 0.02 0.00 85 1012.8
20260831093543 71 157 1.0 5.0 0.00 0.02 0.00 85 1012.8
20260831093045 71 169 3.0 5.0 0.00 0.02 0.00 85 1012.9
20260831092542 70 171 2.0 5.0 0.00 0.02 0.00 86 1012.9
20260831092043 70 148 2.0 5.0 0.00 0.02 0.00 87 1013.0
20260831091543 70 157 0.0 2.0 0.00 0.02 0.00 88 1013.1
20260831091043 70 157 0.0 2.0 0.00 0.02 0.00 87 1013.2
20260831090544 70 157 0.0 2.0 0.00 0.02 0.00 87 1013.2
20260831090040 70 157 0.0 2.0 0.00 0.02 0.00 86 1013.2
20260831085541 71 157 0.0 1.0 0.00 0.02 0.00 86 1013.2
20260831085039 71 157 0.0 2.0 0.00 0.02 0.00 85 1013.2
20260831084537 71 157 0.0 3.0 0.00 0.02 0.00 85 1013.2
20260831084037 71 157 0.0 4.0 0.00 0.02 0.00 85 1013.2
20260831083536 72 177 2.0 5.0 0.00 0.02 0.00 85 1013.2
20260831083044 72 163 2.0 5.0 0.00 0.02 0.00 85 1013.1
20260831082535 72 148 2.0 5.0 0.00 0.02 0.00 85 1013.1
20260831082035 72 161 1.0 5.0 0.00 0.02 0.00 84 1013.2
20260831081536 72 163 2.0 5.0 0.00 0.02 0.00 84 1013.1
20260831081034 72 161 1.0 5.0 0.00 0.02 0.00 84 1013.2
20260831080534 73 158 2.0 5.0 0.00 0.02 0.00 83 1013.0
20260831080032 73 163 1.0 4.0 0.00 0.02 0.00 83 1013.0
20260831075531 73 154 0.0 4.0 0.00 0.02 0.00 82 1012.9
20260831075032 73 172 2.0 5.0 0.00 0.02 0.00 81 1013.0
20260831074537 73 161 2.0 6.0 0.00 0.02 0.00 82 1012.9
20260831074032 73 168 3.0 6.0 0.00 0.02 0.00 81 1012.9
20260831073532 73 165 2.0 6.0 0.00 0.02 0.00 81 1012.9
20260831073033 74 164 2.0 9.0 0.00 0.02 0.00 81 1012.8
20260831072531 74 184 3.0 9.0 0.00 0.02 0.00 81 1012.9
20260831072032 74 173 3.0 7.0 0.00 0.02 0.00 81 1012.9
20260831071531 74 164 3.0 7.0 0.00 0.02 0.00 81 1012.9
20260831071030 74 166 3.0 7.0 0.00 0.02 0.00 81 1012.9
20260831070530 74 183 3.0 7.0 0.00 0.02 0.00 82 1012.9
20260831070037 74 163 4.0 8.0 0.00 0.02 0.00 82 1012.9
20260831065532 74 185 3.0 7.0 0.00 0.02 0.00 83 1012.9
20260831065030 73 168 4.0 8.0 0.00 0.02 0.00 83 1013.0
20260831064527 73 197 3.0 9.0 0.00 0.02 0.00 84 1013.0
20260831064026 73 175 4.0 9.0 0.00 0.02 0.00 84 1013.1
20260831063526 73 169 3.0 7.0 0.00 0.02 0.00 85 1013.1
20260831063027 73 181 3.0 7.0 0.00 0.02 0.00 85 1013.1
20260831062529 73 150 3.0 7.0 0.00 0.02 0.00 86 1013.0
20260831062025 73 179 4.0 8.0 0.00 0.02 0.00 86 1013.1
20260831061525 73 187 4.0 8.0 0.00 0.02 0.00 86 1013.1
20260831061025 73 200 3.0 7.0 0.00 0.02 0.00 87 1013.1
20260831060528 73 182 3.0 7.0 0.00 0.02 0.00 87 1013.1
20260831060022 73 159 2.0 7.0 0.00 0.02 0.00 87 1013.2
20260831055523 74 169 2.0 6.0 0.00 0.02 0.00 87 1013.2
20260831055025 74 157 3.0 6.0 0.00 0.02 0.00 86 1013.3
20260831054527 74 154 3.0 7.0 0.00 0.02 0.00 86 1013.2
20260831054023 74 152 4.0 7.0 0.00 0.02 0.00 87 1013.3
20260831053623 74 159 3.0 7.0 0.00 0.02 0.00 87 1013.4
20260831053020 74 157 3.0 6.0 0.00 0.02 0.00 88 1013.4
20260831052520 74 158 3.0 7.0 0.00 0.02 0.00 88 1013.3
20260831052018 74 155 4.0 8.0 0.00 0.02 0.00 88 1013.3
20260831051521 74 164 4.0 8.0 0.00 0.02 0.00 88 1013.4
20260831051017 74 149 4.0 9.0 0.00 0.02 0.00 88 1013.4
20260831050518 74 162 3.0 9.0 0.00 0.02 0.00 88 1013.4
20260831050016 74 143 4.0 7.0 0.00 0.02 0.00 88 1013.5
20260831045516 74 134 3.0 5.0 0.00 0.02 0.02 89 1013.6
20260831045020 74 131 2.0 4.0 0.00 0.02 0.02 89 1013.6
20260831044516 74 131 2.0 6.0 0.00 0.02 0.02 88 1013.7
20260831044016 75 106 1.0 6.0 0.00 0.02 0.02 87 1013.8
20260831043518 74 104 1.0 3.0 0.00 0.02 0.02 87 1013.9
20260831043015 75 113 0.0 4.0 0.00 0.02 0.02 87 1014.0
20260831042515 75 113 1.0 4.0 0.00 0.02 0.02 87 1014.0
20260831042015 75 114 0.0 2.0 0.00 0.02 0.02 87 1014.0
20260831041516 74 74 0.0 1.0 0.00 0.02 0.02 88 1014.0
20260831041019 74 110 0.0 0.0 0.00 0.02 0.02 88 1014.0
20260831040515 74 110 0.0 0.0 0.00 0.02 0.02 88 1014.0
20260831040018 74 110 0.0 0.0 0.00 0.02 0.02 89 1014.0
20260831035515 74 110 0.0 0.0 0.00 0.02 0.02 88 1014.0
20260831035014 75 110 0.0 0.0 0.00 0.02 0.02 87 1014.1
20260831034514 75 92 0.0 0.0 0.00 0.02 0.02 87 1014.1
20260831034014 75 92 0.0 0.0 0.00 0.02 0.02 87 1014.2
20260831033514 75 92 0.0 0.0 0.00 0.02 0.02 88 1014.1
20260831033018 75 117 0.0 0.0 0.00 0.02 0.02 89 1014.2
20260831032518 75 117 0.0 0.0 0.00 0.02 0.02 88 1014.2
20260831032014 75 117 0.0 2.0 0.00 0.02 0.02 89 1014.1
20260831031524 75 117 0.0 3.0 0.00 0.02 0.02 89 1013.9
20260831031013 75 117 1.0 4.0 0.00 0.02 0.02 89 1013.9
20260831030513 75 117 2.0 4.0 0.00 0.02 0.02 90 1013.9
20260831030015 75 117 1.0 4.0 0.00 0.02 0.02 90 1014.0
20260831025513 75 117 2.0 4.0 0.00 0.02 0.02 90 1014.0
20260831025013 75 117 1.0 4.0 0.00 0.02 0.02 90 1014.0
20260831024518 75 111 2.0 5.0 0.00 0.02 0.02 91 1013.9
20260831024013 74 133 2.0 5.0 0.00 0.02 0.02 91 1013.9
20260831023512 74 96 0.0 2.0 0.00 0.02 0.02 91 1014.0
20260831023012 74 96 0.0 0.0 0.00 0.02 0.02 91 1014.2
20260831022512 75 96 0.0 0.0 0.00 0.02 0.02 90 1014.3
20260831022011 75 96 0.0 1.0 0.00 0.02 0.02 90 1014.2
20260831021512 75 96 0.0 2.0 0.00 0.02 0.02 90 1014.2
20260831021011 75 96 0.0 3.0 0.00 0.02 0.02 90 1014.0
20260831020611 75 96 1.0 3.0 0.00 0.02 0.02 91 1014.1
20260831020010 74 96 0.0 3.0 0.00 0.02 0.02 91 1014.2
20260831015509 74 96 0.0 3.0 0.00 0.02 0.02 91 1013.8
20260831015013 75 96 0.0 2.0 0.00 0.02 0.02 90 1013.9
20260831014513 75 96 0.0 0.0 0.00 0.02 0.02 89 1014.1
20260831014010 76 96 0.0 0.0 0.00 0.02 0.02 89 1014.0
20260831013514 76 96 0.0 0.0 0.00 0.02 0.02 88 1014.1
20260831013010 76 96 0.0 0.0 0.00 0.02 0.02 88 1013.9
20260831012510 77 96 0.0 0.0 0.00 0.02 0.02 87 1013.7
20260831012012 77 96 0.0 0.0 0.00 0.02 0.02 86 1013.6
20260831011515 77 96 0.0 3.0 0.00 0.02 0.02 86 1013.5
20260831011008 77 96 0.0 5.0 0.00 0.02 0.02 86 1013.4
20260831010509 77 81 0.0 7.0 0.00 0.02 0.02 86 1013.4
20260831010025 77 104 2.0 8.0 0.00 0.02 0.02 86 1013.3
20260831005508 77 114 1.0 8.0 0.00 0.02 0.02 86 1013.2
20260831005007 78 120 4.0 7.0 0.00 0.02 0.02 85 1013.1
20260831004507 77 82 0.0 3.0 0.00 0.02 0.02 85 1013.4
20260831004007 77 113 0.0 3.0 0.00 0.02 0.02 87 1013.6
20260831003506 77 113 0.0 3.0 0.00 0.02 0.02 87 1013.5
20260831003006 77 148 1.0 3.0 0.00 0.02 0.02 87 1013.5
20260831002506 77 111 1.0 7.0 0.00 0.02 0.02 87 1013.5
20260831002007 78 119 1.0 7.0 0.00 0.02 0.02 87 1013.5
20260831001506 78 117 2.0 5.0 0.00 0.02 0.02 86 1013.4
20260831001006 78 126 0.0 6.0 0.00 0.02 0.02 86 1013.6
20260831000507 78 126 2.0 6.0 0.00 0.02 0.02 87 1013.5
20260831000004 78 146 4.0 6.0 0.00 0.02 0.02 88 1013.4
20260830235504 78 134 3.0 5.0 0.00 0.02 0.02 89 1013.6
20260830235004 78 117 0.0 2.0 0.00 0.02 0.02 88 1013.8
20260830234503 79 117 0.0 2.0 0.00 0.02 0.02 87 1014.0
20260830234005 80 117 0.0 0.0 0.00 0.02 0.02 86 1014.2
20260830233504 80 117 0.0 0.0 0.00 0.02 0.02 86 1014.3
20260830233003 80 117 0.0 0.0 0.00 0.02 0.02 85 1014.4
20260830232505 81 117 0.0 0.0 0.00 0.02 0.02 85 1014.5
20260830232005 81 117 0.0 0.0 0.00 0.02 0.02 85 1014.4
20260830231503 81 117 0.0 0.0 0.00 0.02 0.02 85 1014.4
20260830231007 81 117 0.0 0.0 0.00 0.02 0.02 85 1014.4
20260830230501 81 117 0.0 0.0 0.00 0.02 0.02 84 1014.3
20260830230003 81 117 0.0 0.0 0.00 0.02 0.02 84 1014.3
20260830225501 81 117 0.0 0.0 0.00 0.02 0.02 84 1014.2
20260830225002 81 117 0.0 0.0 0.00 0.02 0.02 84 1014.2
20260830224502 81 117 0.0 0.0 0.00 0.02 0.02 83 1014.1
20260830224003 81 117 0.0 0.0 0.00 0.02 0.02 83 1014.0
20260830223502 81 117 0.0 0.0 0.00 0.02 0.02 82 1013.9
20260830223001 81 117 0.0 1.0 0.00 0.02 0.02 81 1013.7
20260830222501 81 117 0.0 4.0 0.00 0.02 0.02 81 1013.7
20260830222100 81 117 0.0 4.0 0.00 0.02 0.02 80 1013.7
20260830221600 82 285 0.0 2.0 0.00 0.02 0.02 82 1013.7
20260830221103 82 285 0.0 1.0 0.00 0.02 0.02 81 1013.9
20260830220600 82 285 0.0 1.0 0.00 0.02 0.02 81 1013.8
20260830220059 82 285 0.0 1.0 0.00 0.02 0.02 80 1013.9
20260830215601 82 285 0.0 0.0 0.00 0.02 0.02 80 1014.1
20260830215101 82 285 0.0 0.0 0.00 0.02 0.02 78 1014.1
20260830214605 82 285 0.0 0.0 0.00 0.02 0.02 79 1014.0
20260830214058 82 285 0.0 0.0 0.00 0.02 0.02 78 1014.1
20260830213558 82 285 0.0 0.0 0.00 0.02 0.02 78 1014.1
20260830213109 82 285 0.0 4.0 0.00 0.02 0.02 79 1014.0
20260830212557 82 285 0.0 4.0 0.00 0.02 0.02 78 1014.0
20260830212059 82 290 0.0 4.0 0.00 0.02 0.02 78 1014.1
20260830211605 82 225 0.0 4.0 0.00 0.02 0.02 77 1014.1
20260830211056 82 236 1.0 4.0 0.00 0.02 0.02 78 1014.0